Weather History for KCTB - October, 2012

Change the Weather History Date:

Wednesday, October 17, 2012

  Actual Average Record
Temperature  
Mean Temperature 37 °F 43 °F  
Max Temperature 50 °F 55 °F 77 °F (1963)
Min Temperature 24 °F 30 °F 3 °F (1930)
Degree Days  
Heating Degree Days 28 22  
Month to date heating degree days 361 331  
Since 1 July heating degree days 684 868  
Cooling Degree Days 0 0  
Month to date cooling degree days 0 0  
Year to date cooling degree days 210 161  
Moisture  
Dew Point 20 °F    
Average Humidity 47    
Maximum Humidity 64    
Minimum Humidity 29    
Precipitation  
Precipitation 0.00 in 0.02 in 0.35 in (1949)
Month to date precipitation 0.55 0.30  
Year to date precipitation 7.66 10.18  
Snow  
Snow 0.00 in - - ()
Snow Depth 0.00 in    
Sea Level Pressure  
Sea Level Pressure 30.00 in    
Wind  
Wind Speed 18 mph (West)    
Max Wind Speed 33 mph    
Max Gust Speed 41 mph    
Visibility 10 miles    
Events      
T = Trace of Precipitation, MM = Missing Value Source: NWS Daily Summary

Daily Weather History Graph

Daily Weather History Graph

Search for Another Location

Airport or City:

Trip Planner

Search our weather history database for the weather conditions in past years. The results will help you decide how hot, cold, wet, or windy it might be!

Date:

Astronomy

Oct. 17, 2012 Rise Set
Actual Time 7:53 AM MDT 6:35 PM MDT
Civil Twilight 7:21 AM MDT 7:06 PM MDT
Nautical Twilight 6:45 AM MDT 7:43 PM MDT
Astronomical Twilight 6:08 AM MDT 8:19 PM MDT
Moon 10:47 AM MDT (10/17) 7:58 PM MDT (10/17)
Length of Visible Light 11h 45m
Length of Day
10h 41m
Waxing Crescent, 7% of the Moon is Illuminated
Oct 17
Waxing Crescent
Oct 21
First Quarter
Oct 29
Full
Nov 6
Last Quarter
Nov 13
New

Hourly Weather History & Observations

Time (MDT) Temp. Windchill Dew Point Humidity Pressure Visibility Wind Dir Wind Speed Gust Speed Precip Events Conditions
12:56 AM 37.0 °F 28.5 °F 24.1 °F 59% 29.78 in 10.0 mi West 13.8 mph - N/A   Clear
1:56 AM 37.9 °F 27.9 °F 23.0 °F 55% 29.80 in 10.0 mi West 19.6 mph 26.5 mph N/A   Clear
2:56 AM 37.0 °F 27.4 °F 24.1 °F 59% 29.83 in 10.0 mi West 17.3 mph - N/A   Clear
3:56 AM 37.4 °F 26.9 °F 26.6 °F 65% 29.83 in 10.0 mi West 20.7 mph - N/A   Clear
4:56 AM 35.1 °F 25.5 °F 24.1 °F 64% 29.87 in 10.0 mi West 15.0 mph - N/A   Clear
5:56 AM 35.1 °F 25.2 °F 21.0 °F 57% 29.87 in 10.0 mi West 16.1 mph - N/A   Clear
6:56 AM 34.0 °F 24.2 °F 21.0 °F 59% 29.90 in 10.0 mi West 15.0 mph - N/A   Clear
7:56 AM 35.1 °F 25.2 °F 21.0 °F 57% 29.91 in 10.0 mi West 16.1 mph - N/A   Clear
8:56 AM 37.9 °F 28.5 °F 21.9 °F 53% 29.93 in 10.0 mi West 17.3 mph - N/A   Clear
9:56 AM 43.0 °F 33.3 °F 21.0 °F 42% 29.94 in 10.0 mi West 25.3 mph 29.9 mph N/A   Clear
10:56 AM 46.0 °F 36.9 °F 19.9 °F 35% 29.95 in 10.0 mi West 28.8 mph 36.8 mph N/A   Clear
11:56 AM 48.0 °F - 19.0 °F 32% 29.96 in 10.0 mi WNW 26.5 mph 41.4 mph N/A   Partly Cloudy
12:56 PM 46.9 °F - 17.1 °F 30% 29.99 in 10.0 mi WNW 24.2 mph 36.8 mph N/A   Mostly Cloudy
1:56 PM 48.0 °F - 17.1 °F 29% 30.00 in 10.0 mi West 21.9 mph 35.7 mph N/A   Mostly Cloudy
2:56 PM 46.0 °F 38.0 °F 18.0 °F 33% 30.02 in 10.0 mi WNW 21.9 mph 32.2 mph N/A   Scattered Clouds
3:56 PM 45.0 °F 37.1 °F 17.1 °F 33% 30.05 in 10.0 mi WNW 19.6 mph 27.6 mph N/A   Mostly Cloudy
4:56 PM 46.0 °F 38.3 °F 17.1 °F 31% 30.06 in 10.0 mi West 20.7 mph 26.5 mph N/A   Overcast
5:56 PM 46.9 °F - 17.1 °F 30% 30.09 in 10.0 mi West 23.0 mph 27.6 mph N/A   Overcast
6:56 PM 39.0 °F 31.8 °F 19.0 °F 45% 30.14 in 10.0 mi West 11.5 mph - N/A   Overcast
7:56 PM 34.0 °F 24.6 °F 19.9 °F 56% 30.17 in 10.0 mi WNW 13.8 mph - N/A   Partly Cloudy
8:56 PM 32.0 °F 22.5 °F 19.9 °F 61% 30.19 in 10.0 mi West 12.7 mph - N/A   Clear
9:56 PM 30.9 °F 20.7 °F 19.0 °F 61% 30.20 in 10.0 mi WNW 13.8 mph - N/A   Clear
10:56 PM 30.9 °F 21.7 °F 19.9 °F 64% 30.21 in 10.0 mi West 11.5 mph - N/A   Clear
11:56 PM 30.0 °F 20.0 °F 19.9 °F 66% 30.22 in 10.0 mi WNW 12.7 mph - N/A   Clear